Weather History for KFTG - July, 2013

Change the Weather History Date:

Tuesday, July 23, 2013

  Actual Average (KDEN) Record (KDEN)
Temperature  
Mean Temperature 80 °F 75 °F  
Max Temperature 91 °F 90 °F 102 °F (2005)
Min Temperature 68 °F 60 °F 49 °F (1961)
Degree Days  
Heating Degree Days 0 0  
Month to date heating degree days 1  
Since 1 June heating degree days 63  
Since 1 July heating degree days 1  
Cooling Degree Days 14 10  
Month to date cooling degree days 209  
Year to date cooling degree days 364  
Since 1 June cooling degree days 342  
Growing Degree Days 30 (Base 50)    
Moisture  
Dew Point 44 °F    
Average Humidity 35    
Maximum Humidity 60    
Minimum Humidity 17    
Precipitation  
Precipitation 0.00 in 0.08 in 1.44 in (2001)
Month to date precipitation 1.53  
Year to date precipitation 9.04  
Snow  
Snow 0.00 in - - ()
Month to date snowfall  
Since 1 June snowfall  
Since 1 July snowfall  
Snow Depth -    
Sea Level Pressure  
Sea Level Pressure 30.10 in    
Wind  
Wind Speed 13 mph (South)    
Max Wind Speed 18 mph    
Max Gust Speed 23 mph    
Visibility 10 miles    
Events      
T = Trace of Precipitation, MM = Missing Value Source: NWS Daily Summary

Daily Weather History Graph

Daily Weather History Graph

Search for Another Location

Airport or City:

Trip Planner

Search our weather history database for the weather conditions in past years. The results will help you decide how hot, cold, wet, or windy it might be!

Date:

Astronomy

Jul. 23, 2013 Rise Set
Actual Time 5:49 AM MDT 8:19 PM MDT
Civil Twilight 5:18 AM MDT 8:50 PM MDT
Nautical Twilight 4:39 AM MDT 9:28 PM MDT
Astronomical Twilight 3:56 AM MDT 10:11 PM MDT
Moon 8:49 PM MDT (7/23) 7:00 AM MDT (7/23)
Length of Visible Light 15h 32m
Length of Day
14h 30m
Full, 99% of the Moon is Illuminated
Jul 23
Full
Jul 29
Last Quarter
Aug 6
New
Aug 14
First Quarter
Aug 20
Full

Hourly Weather History & Observations

Time (MDT) Temp. Heat Index Dew Point Humidity Pressure Visibility Wind Dir Wind Speed Gust Speed Precip Events Conditions
12:16 AM 75.2 °F - 41.0 °F 29% 30.02 in 10.0 mi SSW 16.1 mph - N/A   Clear
12:36 AM 77.0 °F - 39.2 °F 26% 30.03 in 10.0 mi SSW 15.0 mph - N/A   Clear
12:56 AM 77.0 °F - 37.4 °F 24% 30.03 in 10.0 mi SSW 17.3 mph - N/A   Clear
1:16 AM 75.2 °F - 39.2 °F 27% 30.03 in 10.0 mi SSW 15.0 mph - N/A   Clear
1:36 AM 77.0 °F - 37.4 °F 24% 30.03 in 10.0 mi SSW 16.1 mph - N/A   Clear
1:56 AM 77.0 °F - 37.4 °F 24% 30.03 in 10.0 mi SSW 16.1 mph - N/A   Clear
2:16 AM 77.0 °F - 37.4 °F 24% 30.02 in 10.0 mi SSW 18.4 mph - N/A   Clear
2:35 AM 75.2 °F - 37.4 °F 25% 30.03 in 10.0 mi SSW 16.1 mph - N/A   Clear
2:55 AM 75.2 °F - 37.4 °F 25% 30.03 in 10.0 mi SSW 12.7 mph - N/A   Clear
3:16 AM 73.4 °F - 37.4 °F 27% 30.03 in 10.0 mi SW 10.4 mph - N/A   Clear
3:36 AM 71.6 °F - 37.4 °F 29% 30.04 in 10.0 mi SW 10.4 mph - N/A   Clear
3:55 AM 71.6 °F - 39.2 °F 31% 30.04 in 10.0 mi SW 9.2 mph - N/A   Clear
4:15 AM 71.6 °F - 39.2 °F 31% 30.05 in 10.0 mi SW 10.4 mph - N/A   Clear
4:36 AM 71.6 °F - 37.4 °F 29% 30.05 in 10.0 mi SW 10.4 mph - N/A   Clear
4:56 AM 71.6 °F - 37.4 °F 29% 30.05 in 10.0 mi SW 6.9 mph - N/A   Clear
5:16 AM 71.6 °F - 37.4 °F 29% 30.05 in 10.0 mi SW 9.2 mph - N/A   Clear
5:36 AM 71.6 °F - 37.4 °F 29% 30.06 in 10.0 mi SW 10.4 mph - N/A   Clear
5:56 AM 71.6 °F - 37.4 °F 29% 30.06 in 10.0 mi SW 11.5 mph - N/A   Clear
6:16 AM 71.6 °F - 37.4 °F 29% 30.08 in 10.0 mi SW 9.2 mph - N/A   Clear
6:36 AM 68.0 °F - 41.0 °F 37% 30.08 in 10.0 mi WSW 8.1 mph - N/A   Clear
6:53 AM 69.8 °F - 39.2 °F 33% 30.08 in 10.0 mi WSW 8.1 mph - N/A   Clear
7:51 AM 75.2 °F - 39.2 °F 27% 30.10 in 40.0 mi West 4.6 mph - N/A   Mostly Cloudy
9:50 AM 82.4 °F - 41.0 °F 23% 30.15 in 40.0 mi North 11.5 mph - N/A   Scattered Clouds
12:47 PM 84.2 °F - 51.8 °F 33% 30.15 in 40.0 mi NE 16.1 mph 23.0 mph N/A   Scattered Clouds
1:47 PM 87.8 °F - 50.0 °F 27% 30.15 in 30.0 mi NE 16.1 mph - N/A   Scattered Clouds
2:48 PM 91.4 °F - 48.2 °F 23% 30.14 in 30.0 mi ENE 12.7 mph - N/A   Scattered Clouds
4:48 PM 91.4 °F - 41.0 °F 17% 30.12 in 30.0 mi East 11.5 mph - N/A   Mostly Cloudy
5:48 PM 89.6 °F - 39.2 °F 17% 30.11 in 30.0 mi NE 11.5 mph - N/A   Mostly Cloudy
6:48 PM 86.0 °F - 50.0 °F 29% 30.12 in 30.0 mi NE 15.0 mph - N/A   Mostly Cloudy
7:48 PM 82.4 °F 81.7 °F 55.4 °F 39% 30.14 in 30.0 mi NE 15.0 mph - N/A   Mostly Cloudy
8:36 PM 78.8 °F - 55.4 °F 44% 30.16 in 10.0 mi NE 9.2 mph - N/A   Clear
8:56 PM 77.0 °F - 55.4 °F 47% 30.16 in 10.0 mi NE 8.1 mph - N/A   Clear
9:16 PM 73.4 °F - 55.4 °F 53% 30.18 in 10.0 mi NE 8.1 mph - N/A   Clear
9:36 PM 73.4 °F - 55.4 °F 53% 30.18 in 10.0 mi East 6.9 mph - N/A   Clear
9:55 PM 71.6 °F - 55.4 °F 57% 30.19 in 10.0 mi East 6.9 mph - N/A   Clear
10:16 PM 69.8 °F - 53.6 °F 56% 30.20 in 10.0 mi ENE 9.2 mph - N/A   Clear
10:35 PM 69.8 °F - 53.6 °F 56% 30.21 in 10.0 mi East 8.1 mph - N/A   Clear
10:56 PM 69.8 °F - 53.6 °F 56% 30.22 in 10.0 mi East 8.1 mph - N/A   Clear
11:16 PM 69.8 °F - 53.6 °F 56% 30.22 in 10.0 mi SE 8.1 mph - N/A   Clear
11:36 PM 68.0 °F - 53.6 °F 60% 30.23 in 10.0 mi SE 5.8 mph - N/A   Clear
11:56 PM 68.0 °F - 53.6 °F 60% 30.22 in 10.0 mi East 9.2 mph - N/A   Clear